Theta_e
337 336 335 335 335 336 336 336 335 333 332 332 332 331 331 332 333 333 332 331 331 330 329 328 327 327 328 329 331 331 332 333 334 334 333 333 328 323 322 321 319 318 320 323 324 325 327 327 327 325 323 321 323 325 325 325 325 325 326 327 326 324 322 318 315 315 313 311 309 307 306 307 309 310 309 309 311 313 314 314 315 315 316 317 317
336 335 335 335 335 335 334 334 333 331 331 331 331 331 331 332 333 333 332 332 331 330 329 329 327 327 328 328 329 329 331 332 333 334 334 334 330 326 324 323 322 320 319 320 323 326 327 326 325 324 324 321 319 322 325 325 324 325 326 325 325 326 325 321 317 315 315 314 312 309 307 306 307 308 308 308 309 310 312 312 312 313 314 315 316
334 334 333 334 333 334 334 334 333 332 331 331 330 330 331 332 333 332 331 331 331 330 330 331 329 329 329 328 328 328 330 331 331 332 333 334 332 329 327 326 326 324 321 319 321 325 326 327 325 324 325 322 319 320 323 324 324 324 325 325 323 324 325 322 318 316 315 315 314 312 309 307 307 307 307 308 308 309 309 309 310 312 314 315 315
333 332 331 331 329 331 334 332 332 332 331 329 330 331 331 332 332 331 330 331 332 331 331 331 331 330 330 329 330 329 329 330 330 331 333 333 333 331 329 328 328 326 324 322 321 323 325 328 328 326 325 325 323 321 319 320 323 323 323 325 322 322 324 323 320 318 317 316 315 315 313 310 307 307 307 307 308 308 308 307 308 311 313 314 315
333 332 330 328 325 327 332 332 331 331 330 330 331 331 331 330 330 330 329 330 331 330 330 331 331 331 331 331 331 330 330 330 330 330 332 333 333 332 331 330 328 327 326 325 324 324 324 327 328 328 327 326 325 325 320 318 322 321 320 323 321 320 322 322 322 320 318 317 316 315 315 313 310 308 306 306 307 307 307 307 307 309 311 312 313
333 332 331 329 327 328 329 331 332 330 330 331 331 332 331 330 329 329 328 329 330 330 330 330 331 331 331 331 331 331 331 330 330 329 331 332 332 332 332 331 330 329 327 327 326 325 325 326 327 328 327 326 326 326 325 322 321 321 320 320 319 318 319 320 322 321 318 318 317 316 316 315 314 311 308 306 305 306 306 306 307 307 307 308 310
334 332 332 331 331 332 331 333 333 331 331 330 330 332 331 329 329 328 326 327 329 329 329 329 329 330 330 330 330 331 330 330 330 329 329 329 330 332 332 331 331 330 329 328 328 327 326 326 326 327 327 327 327 326 328 325 321 322 323 322 320 317 315 316 319 321 321 318 316 316 315 316 316 314 311 308 305 305 305 305 306 306 305 306 307
333 333 333 332 332 334 334 335 333 332 331 330 331 332 330 329 328 327 325 324 326 326 327 327 327 328 328 327 328 328 329 330 329 329 329 329 329 330 331 332 332 331 330 329 329 329 328 327 326 328 327 327 327 326 327 327 323 323 326 326 324 319 314 313 315 319 323 321 318 317 317 318 318 316 314 311 307 305 304 305 305 305 305 305 306
333 333 332 331 332 335 336 334 332 331 331 330 332 332 330 329 327 327 325 324 324 323 323 324 324 324 325 325 326 326 326 327 328 328 328 328 328 329 329 330 331 331 331 330 330 330 329 329 328 327 327 327 327 326 326 327 325 323 326 328 327 323 317 313 313 315 321 323 322 321 320 320 319 317 316 314 311 308 305 304 304 304 305 305 306
333 333 332 330 331 333 335 334 332 332 332 331 333 332 330 330 327 326 326 326 326 325 325 325 324 324 325 326 328 327 326 325 325 326 327 327 327 328 329 329 328 329 330 331 331 331 330 330 330 328 328 327 327 327 326 326 326 325 326 328 328 326 321 317 315 313 316 322 324 323 322 321 319 317 317 317 315 313 309 306 304 303 304 304 305
331 331 330 329 330 331 333 334 333 332 332 333 333 332 331 330 328 327 327 327 327 328 329 328 326 326 328 329 329 330 329 326 324 325 325 326 326 327 327 327 328 327 329 331 331 331 331 330 330 330 329 328 328 327 327 326 325 326 328 329 330 328 324 323 322 317 315 317 321 324 323 322 320 319 320 321 319 318 314 310 306 303 303 304 305
328 328 327 328 330 331 332 333 333 332 332 332 331 331 331 330 329 327 326 327 329 330 330 329 329 328 328 329 330 330 328 325 323 323 322 323 324 326 326 326 326 327 328 330 331 331 332 331 331 331 330 329 328 328 327 326 326 325 327 330 331 329 326 325 326 325 322 318 318 321 322 322 321 321 322 323 323 322 319 315 311 307 304 303 304
327 326 326 326 328 330 332 333 333 332 332 332 330 329 329 329 328 327 326 328 331 331 330 330 330 329 329 330 330 328 325 323 322 321 321 322 323 324 325 325 326 327 328 329 329 330 331 332 332 332 331 330 329 329 328 327 326 325 325 327 330 331 329 326 326 328 328 326 322 319 320 320 321 321 322 323 324 324 323 320 316 313 308 305 303
324 325 325 326 326 327 330 332 332 332 332 331 330 329 328 328 328 328 328 329 330 330 330 330 330 330 329 329 329 327 324 323 321 319 321 323 324 324 324 324 325 326 327 328 328 329 329 330 331 331 331 330 330 330 329 328 327 326 325 325 327 330 331 331 330 329 329 329 327 324 321 319 318 320 321 321 322 322 324 323 321 318 314 309 305
320 323 323 325 325 326 327 328 329 331 332 331 330 329 329 327 327 327 327 327 328 330 330 329 330 331 329 330 332 330 328 326 323 320 321 323 324 323 323 323 325 325 326 327 328 327 328 328 329 330 331 331 330 330 330 330 328 327 327 326 325 327 330 331 332 332 330 329 329 328 326 322 319 319 320 321 321 321 321 322 323 322 319 315 310
320 322 321 321 322 325 326 326 327 329 330 330 330 329 329 328 327 326 326 326 328 330 331 329 329 331 329 330 331 330 333 331 326 322 321 323 323 323 323 323 323 324 324 325 325 324 325 327 329 329 330 331 331 331 330 330 330 329 328 327 327 326 327 328 331 332 331 330 330 330 329 326 323 322 322 323 322 322 322 321 322 323 322 320 316
320 320 321 319 319 322 325 325 326 327 327 328 330 329 329 328 326 327 327 328 329 330 332 330 330 330 329 330 330 331 334 331 328 327 323 321 321 321 322 322 322 323 322 322 320 320 322 325 327 328 329 330 330 331 331 330 331 332 331 328 327 327 326 326 328 330 332 332 332 332 331 329 327 326 326 326 325 325 324 323 323 323 323 323 321
319 319 320 320 319 319 321 323 323 325 325 326 327 328 328 328 327 328 328 329 329 330 330 330 330 330 328 328 329 331 331 329 331 333 326 321 320 321 321 321 321 321 321 320 318 318 319 320 324 327 328 329 329 330 331 330 329 331 332 330 329 328 328 327 327 327 330 332 334 333 332 332 331 330 329 329 328 327 327 326 325 325 325 325 324
319 319 319 318 317 317 317 318 318 320 322 323 325 326 326 327 328 327 326 328 329 328 328 328 329 330 328 328 328 328 328 328 330 333 330 328 326 323 323 323 323 323 323 323 321 320 318 318 321 324 325 327 329 330 330 330 330 330 330 331 330 330 329 329 328 328 328 329 332 333 332 332 332 332 332 331 330 330 329 328 328 327 326 326 326
319 319 319 316 315 316 316 317 319 319 320 321 322 323 323 323 324 324 324 326 327 326 326 327 328 327 327 327 328 327 326 327 328 328 330 331 329 327 326 325 326 325 324 324 323 322 319 317 318 319 319 323 327 328 329 330 330 329 330 329 330 330 331 331 330 329 328 327 328 329 331 333 333 333 333 333 332 331 331 330 329 329 328 328 327
318 317 317 316 313 313 314 315 318 319 320 321 321 321 321 320 320 320 320 322 325 325 324 323 323 324 325 326 326 326 326 327 327 326 327 329 330 330 326 323 323 321 320 321 322 321 319 318 318 318 317 317 319 323 326 328 329 329 330 330 330 330 331 331 331 331 330 329 326 326 328 332 333 334 333 332 332 332 331 331 331 330 329 328 328
315 314 314 314 312 312 312 313 313 314 315 318 320 320 319 318 318 318 317 318 319 320 317 315 315 317 321 323 322 321 322 321 320 321 323 324 327 326 319 317 319 317 317 319 319 319 318 318 318 318 316 315 315 318 321 322 324 327 328 329 330 330 330 330 331 332 331 330 329 327 327 328 330 333 334 333 332 332 332 332 331 331 330 329 328
314 314 313 312 312 312 313 312 312 311 312 314 315 316 316 315 315 315 314 314 314 314 312 311 312 313 314 315 314 313 313 313 312 313 315 317 320 320 315 313 316 315 315 316 316 316 316 317 318 317 315 314 313 314 316 318 321 325 328 329 330 330 331 331 332 332 332 332 331 331 331 330 330 331 333 334 333 333 333 332 332 331 330 329 329
314 314 313 311 311 312 312 312 311 312 313 314 313 313 313 313 312 310 308 308 310 311 310 309 309 310 310 310 310 309 309 309 310 311 311 312 314 315 313 313 314 314 313 314 315 315 315 315 316 316 317 317 315 314 316 319 322 325 328 330 330 330 330 331 332 332 332 332 333 333 332 331 330 331 332 332 333 333 333 333 332 332 331 330 329
314 313 312 312 312 311 312 313 312 312 312 312 312 312 311 310 308 305 301 301 304 306 306 307 307 309 309 309 308 307 308 309 310 310 311 311 311 311 311 312 313 313 313 313 314 315 315 315 316 317 319 321 321 320 320 320 320 324 328 329 329 329 329 329 330 329 330 330 331 332 330 329 328 328 329 331 332 333 333 333 333 333 332 331 330
314 313 312 313 313 312 312 312 312 312 311 310 310 310 309 308 307 305 302 300 300 300 301 302 304 307 307 307 306 306 307 309 309 309 310 310 310 311 311 312 312 312 312 313 314 314 315 315 315 316 316 318 319 320 322 323 324 325 328 328 327 326 326 326 326 327 327 327 327 327 326 326 326 326 327 328 329 330 330 332 333 333 333 332 331
314 313 313 314 314 313 311 309 309 311 312 312 311 310 309 308 309 308 304 301 300 299 299 299 302 306 307 306 304 302 304 307 308 308 309 310 310 311 311 314 315 315 312 312 313 313 314 314 314 314 314 314 315 316 320 324 326 325 325 325 324 323 324 324 325 325 326 326 326 325 325 324 324 325 326 327 327 327 328 329 331 332 332 332 332
314 313 314 315 315 314 310 308 308 308 311 312 311 311 310 309 308 307 306 306 304 302 301 300 303 307 308 307 305 302 302 304 305 304 305 309 310 310 310 312 315 317 316 318 316 312 312 313 313 314 313 312 313 313 315 319 322 321 319 320 321 321 321 322 323 324 325 326 326 326 325 325 324 324 324 325 325 326 327 327 328 329 330 332 332
315 314 315 316 315 313 311 309 308 306 308 311 310 311 309 308 308 309 311 312 310 307 306 303 303 306 307 308 308 306 303 303 305 303 304 307 309 309 309 309 311 314 316 320 319 314 310 311 312 313 312 312 312 312 312 314 316 315 315 316 317 317 317 317 318 318 321 323 324 324 325 324 324 323 323 324 324 324 325 326 327 327 328 329 330
316 314 315 316 315 314 312 311 308 307 310 311 310 310 310 309 309 311 312 312 311 310 310 307 304 303 305 308 309 308 304 304 307 306 305 306 307 307 307 308 309 311 312 315 317 314 309 309 310 310 310 310 310 311 311 311 311 311 311 312 313 314 315 316 316 316 318 321 322 322 322 322 321 321 321 321 321 322 322 323 325 327 327 327 328
317 315 315 316 316 315 314 312 310 309 311 312 311 310 311 311 310 311 311 309 309 310 310 309 306 304 304 306 308 308 305 304 306 308 307 307 307 307 306 307 308 308 309 311 313 312 309 308 309 308 307 307 307 308 308 309 309 310 311 311 311 312 313 316 317 317 318 320 321 322 322 322 321 320 320 320 319 320 321 321 321 323 326 327 327
317 316 316 316 316 315 315 315 313 312 312 312 311 310 311 311 310 311 310 309 310 310 309 308 307 306 306 306 308 307 304 304 306 308 308 307 307 307 307 308 308 308 308 308 310 310 308 308 308 307 307 307 307 306 307 309 310 311 310 311 310 310 310 312 314 315 316 316 317 317 318 318 318 318 319 320 320 320 320 320 320 319 321 324 326
318 318 317 316 316 315 315 316 316 314 313 312 312 310 311 312 311 311 310 310 312 311 309 308 307 307 308 308 309 308 305 304 305 306 307 306 306 307 308 308 308 309 309 308 308 308 307 306 307 307 307 309 309 308 309 309 308 308 308 308 308 308 308 309 309 310 311 312 312 313 313 313 313 313 315 317 319 320 319 319 319 319 319 321 323
319 319 318 317 317 316 316 316 316 316 314 313 313 311 311 312 311 311 311 310 311 311 309 309 309 308 307 308 308 308 307 305 303 304 305 306 306 307 307 307 307 307 307 307 307 307 307 307 307 307 307 308 308 307 307 308 307 307 307 308 308 308 308 308 308 308 308 309 310 310 311 311 312 311 311 312 314 316 318 319 319 320 319 319 320
319 319 318 318 318 317 316 317 317 318 317 315 314 312 311 312 312 311 311 311 310 310 310 310 309 308 307 307 307 307 308 307 304 305 306 306 306 307 306 306 306 305 305 306 306 307 307 307 306 306 305 305 305 305 306 306 306 307 307 307 308 308 308 308 308 308 309 308 309 309 310 310 311 311 311 312 311 312 315 317 319 318 318 318 319
319 319 319 318 318 317 317 318 318 318 318 316 315 314 312 312 313 312 312 312 310 309 310 310 309 308 308 308 307 307 308 308 306 306 307 307 306 306 306 305 305 305 305 305 305 305 306 305 305 305 305 305 305 305 305 306 306 307 307 307 307 308 308 308 308 308 308 309 309 309 310 310 310 311 311 312 312 312 313 315 317 318 318 318 318
320 319 319 319 319 319 318 319 319 319 319 318 317 316 314 313 313 313 313 312 311 309 310 310 309 308 309 309 308 308 308 308 307 306 306 307 307 306 306 305 305 305 305 304 304 304 304 304 304 304 304 304 305 305 305 306 306 306 306 306 307 307 307 307 307 308 308 309 309 310 310 310 310 309 310 310 311 313 313 313 315 316 317 317 318
319 319 319 319 319 319 319 319 319 318 319 319 318 317 316 314 313 313 313 313 312 310 309 310 310 309 309 309 308 308 308 307 307 306 306 307 306 306 305 305 305 305 304 303 303 302 302 302 302 302 303 303 303 303 304 305 305 306 306 306 307 307 307 307 307 307 307 308 308 309 309 309 309 309 309 309 309 311 313 313 314 314 315 316 317
318 318 318 318 318 318 317 316 315 315 316 317 318 318 317 316 314 314 313 313 313 311 310 310 310 309 309 308 308 307 307 307 306 306 306 306 305 305 305 304 303 302 301 300 300 300 300 301 301 301 301 301 302 301 302 302 303 304 305 306 306 307 306 306 306 306 307 307 307 308 309 309 310 310 310 310 310 310 311 313 314 315 316 316 317
318 317 317 317 317 317 316 313 313 313 314 315 316 317 318 317 316 314 313 313 313 312 311 310 310 309 309 308 308 307 306 306 306 305 305 305 305 304 303 300 298 297 297 298 298 298 298 298 297 297 297 298 299 300 300 301 302 303 303 303 304 305 305 306 306 307 307 308 308 308 309 309 309 310 310 312 312 312 312 313 314 315 316 316 317
318 318 317 317 316 316 316 314 314 315 316 315 316 316 318 318 317 316 314 314 313 312 311 311 310 309 309 308 307 307 306 305 305 305 305 305 304 302 298 295 293 293 294 295 296 296 296 295 295 296 296 297 298 299 300 300 301 301 301 301 302 303 303 304 306 306 307 308 308 308 308 307 306 307 309 311 312 314 314 316 316 316 317 317 317
316 316 315 315 316 316 316 316 316 316 317 317 316 317 318 319 317 316 315 314 313 312 311 311 310 309 308 307 307 305 305 305 304 304 304 304 303 300 298 296 295 294 295 295 295 296 296 295 296 296 297 298 298 299 299 299 300 300 300 301 301 302 302 302 304 305 306 306 305 305 306 306 305 305 306 308 309 310 312 314 315 315 316 317 318
314 315 314 314 314 315 316 316 316 316 317 318 318 317 319 319 318 317 316 314 313 312 312 311 310 309 308 307 306 305 304 304 303 303 303 302 301 300 299 298 298 298 298 297 297 296 296 296 296 297 297 298 298 298 298 299 299 300 300 300 300 300 300 300 301 303 304 303 302 302 304 305 304 304 305 306 307 306 306 308 311 313 313 314 315
316 316 316 316 314 314 316 316 316 316 317 318 318 318 318 319 319 317 316 314 313 312 312 312 311 309 308 307 306 305 304 303 303 303 302 302 302 301 299 299 299 299 298 298 297 297 297 296 296 297 297 297 297 297 298 299 299 299 299 300 300 299 298 298 298 299 300 301 300 299 302 304 304 304 303 304 304 304 303 304 307 310 312 314 314
316 316 315 316 316 316 317 318 319 319 319 319 319 319 319 319 318 317 315 314 313 313 312 312 311 309 308 307 305 304 303 303 303 303 303 302 302 301 300 300 299 299 298 298 297 297 297 297 296 297 297 297 297 297 298 298 298 299 299 300 300 299 298 297 297 297 298 299 299 299 300 301 302 302 303 303 303 303 302 303 305 306 309 312 314
314 314 314 314 315 316 317 317 319 320 320 320 320 320 320 319 318 316 314 314 313 312 311 310 309 307 306 305 304 303 303 303 303 303 303 302 301 301 300 300 300 299 298 298 297 297 297 297 297 296 297 297 297 298 298 299 298 299 299 299 299 298 297 297 297 297 297 298 298 299 299 300 300 301 302 303 303 303 303 303 304 305 306 308 309
314 313 313 313 314 315 315 315 316 317 318 318 318 318 318 318 316 314 313 313 312 310 308 307 306 305 304 304 304 303 303 303 303 303 302 302 301 301 300 300 299 298 297 297 297 296 296 296 296 296 297 297 297 297 298 298 298 298 299 299 298 297 296 296 296 296 297 297 298 298 299 299 299 300 302 302 302 303 303 303 304 305 306 307 308
313 313 313 312 313 315 315 315 315 316 316 316 316 314 314 314 313 311 311 310 308 307 307 306 305 304 304 304 304 303 303 302 302 302 302 301 301 300 300 299 298 298 297 297 296 296 296 296 296 297 297 297 297 297 297 297 297 297 297 297 297 296 296 295 295 296 296 296 296 297 298 298 299 300 301 301 301 302 302 302 303 304 306 308 310
311 312 312 312 313 315 316 316 316 316 316 315 312 311 310 311 310 308 308 307 305 305 305 304 304 304 304 303 303 303 302 302 301 301 301 301 301 300 299 298 298 298 297 297 297 296 297 297 297 297 297 296 296 296 296 296 296 296 296 295 296 296 295 295 295 295 295 295 296 296 297 297 298 299 299 300 300 301 301 302 305 306 308 309 310
309 310 312 313 313 313 314 315 316 316 315 313 311 309 309 309 308 307 306 305 303 303 303 303 303 303 303 303 302 302 302 301 302 301 301 301 300 299 298 298 297 297 297 297 297 297 296 296 296 296 296 296 296 296 295 295 295 295 294 294 294 294 294 294 294 295 295 296 296 296 297 297 298 298 299 299 299 300 301 305 307 307 307 307 307
308 310 312 313 313 313 313 314 314 314 314 313 310 309 308 307 308 307 305 303 302 302 302 302 302 302 302 302 302 302 301 301 301 301 300 299 298 297 297 296 296 296 296 295 295 295 295 295 294 294 294 294 294 294 294 293 293 293 292 292 292 293 293 294 294 295 295 296 296 296 297 297 298 298 298 299 299 299 302 305 306 306 306 305 305
Wind_Speed
12 10 9 8 9 11 13 14 14 13 12 11 11 9 10 11 9 8 6 6 8 7 8 9 8 5 3 5 6 3 2 4 5 5 5 5 6 8 7 7 6 6 6 6 8 8 8 8 5 2 2 6 8 7 6 6 6 5 3 2 1 1 1 2 5 6 6 5 5 5 6 6 6 6 7 7 7 8 8 9 10 10 11 12 12
12 10 10 9 10 12 13 15 15 15 13 12 11 10 9 10 10 10 9 10 10 9 9 7 5 4 2 4 4 2 1 2 3 5 6 5 6 8 7 6 6 5 5 6 7 7 7 7 5 3 1 4 7 8 8 6 6 6 4 4 3 3 2 1 1 5 6 6 5 5 5 5 5 5 6 6 6 7 7 8 8 9 10 11 11
15 13 13 14 14 13 13 14 15 15 12 11 11 11 9 10 10 9 10 11 10 10 9 7 5 4 3 2 2 1 1 2 2 3 6 7 7 7 7 6 4 4 5 5 6 7 6 6 5 3 1 2 5 6 8 8 7 8 6 5 5 5 3 2 2 2 4 5 5 5 5 5 4 5 5 5 5 6 6 7 8 9 10 10 10
17 15 14 16 15 12 12 14 14 13 11 12 13 12 10 11 12 9 10 12 12 11 9 8 6 5 4 2 2 1 1 3 2 2 7 9 7 7 6 5 4 3 4 4 5 6 6 6 5 4 3 2 3 4 6 7 8 9 8 7 7 7 5 3 3 2 2 3 5 5 5 5 4 4 4 4 4 5 5 6 7 8 9 9 9
16 17 16 16 14 12 12 12 12 13 12 14 14 13 11 12 13 11 12 15 16 13 11 9 6 4 4 3 2 2 1 2 2 2 5 9 7 7 7 6 6 5 4 4 4 5 6 7 7 5 4 4 4 4 4 5 7 8 9 9 8 8 8 6 5 4 2 2 3 4 5 5 4 3 3 2 3 3 4 5 6 6 7 8 9
13 16 17 15 14 13 10 9 12 14 14 14 13 12 12 12 13 13 12 15 16 15 12 10 7 5 3 1 3 4 3 3 3 1 3 5 6 8 9 7 7 7 6 5 5 5 6 7 8 7 6 5 5 5 5 4 7 8 8 9 7 8 10 9 7 6 4 3 3 3 4 4 4 3 2 1 1 2 2 3 4 4 5 6 7
12 14 16 14 13 13 10 9 12 16 15 13 12 12 12 12 13 13 13 13 14 14 13 11 10 8 5 2 1 4 6 6 6 5 2 1 2 7 10 9 8 9 8 7 7 7 8 8 8 8 7 7 6 6 7 6 7 8 7 7 6 6 9 11 10 8 6 5 5 4 4 4 4 3 2 1 0 0 0 1 2 3 3 4 5
11 12 14 13 12 13 12 11 14 16 15 13 13 13 13 14 14 13 12 13 13 13 12 12 11 9 5 1 1 3 4 5 5 7 8 6 3 3 6 9 10 10 10 9 9 9 9 9 9 9 8 8 7 7 8 8 8 7 7 8 7 6 8 11 11 10 8 6 6 5 5 6 6 5 4 2 1 1 1 1 1 1 2 3 4
11 10 9 11 14 15 13 12 15 16 15 14 14 14 15 15 15 12 11 12 13 12 12 11 10 10 8 5 4 5 5 4 5 5 6 8 8 5 4 4 6 9 12 13 12 10 11 10 10 10 10 10 9 8 8 8 9 8 8 8 9 7 6 9 10 12 11 9 7 6 6 6 6 6 5 4 2 1 2 2 2 1 2 2 3
11 10 8 9 13 14 12 13 16 17 17 16 14 15 14 14 14 13 11 12 13 12 12 10 9 9 9 7 5 5 6 7 7 6 5 5 7 8 7 6 4 3 7 14 15 12 11 11 11 13 12 11 11 10 10 9 9 9 9 8 9 9 8 7 8 10 12 11 9 8 7 5 5 5 5 4 3 2 2 2 3 3 3 3 3
9 8 6 6 9 11 12 13 15 17 18 17 15 15 14 13 14 15 12 11 10 10 11 10 8 7 7 7 5 5 6 8 8 7 7 7 5 5 6 7 8 4 2 8 17 15 12 11 12 14 15 14 13 12 12 11 10 10 10 11 11 12 10 7 6 6 9 10 10 10 9 7 5 5 4 4 3 2 2 2 3 3 4 4 4
8 7 5 5 8 9 11 12 15 18 18 17 15 14 15 14 14 15 14 11 9 7 9 10 8 6 4 4 4 5 7 8 8 7 7 8 8 6 6 5 6 6 2 1 9 13 13 13 14 15 16 16 16 14 14 13 12 11 11 13 14 13 12 10 8 6 6 8 9 10 10 8 7 6 5 4 4 3 2 3 3 4 4 4 5
7 6 6 6 7 8 9 11 15 17 16 14 13 13 14 14 13 14 13 11 9 6 8 10 7 4 1 2 3 5 7 7 7 7 7 8 9 8 7 5 2 3 3 2 2 5 9 14 17 18 18 17 17 16 16 16 15 13 12 13 15 15 14 13 11 10 8 8 9 10 10 9 8 7 7 7 6 5 4 4 4 4 4 4 5
7 6 6 6 6 7 8 10 12 14 14 13 13 13 14 14 13 13 11 8 5 4 7 9 6 5 4 1 2 5 6 7 7 8 7 7 8 7 5 5 3 2 2 2 3 3 5 8 11 15 19 21 21 19 18 18 18 17 15 14 15 16 16 15 14 13 12 11 10 10 11 10 9 8 9 9 9 8 6 6 5 5 5 5 5
9 10 9 7 5 6 8 7 7 9 12 13 13 13 13 13 12 12 10 7 5 5 8 9 7 7 6 2 0 2 4 6 7 7 7 7 7 7 5 4 5 3 2 3 3 4 5 6 7 8 13 18 21 21 21 21 21 20 18 16 16 16 17 16 16 16 15 14 13 12 13 12 11 10 10 10 10 10 9 8 7 6 6 6 6
11 11 11 11 8 6 7 7 6 6 8 11 12 12 12 11 11 11 9 9 8 6 6 9 9 7 4 2 1 1 2 4 5 5 6 8 7 6 6 5 4 4 4 3 4 6 6 6 9 10 11 13 16 18 20 21 22 24 22 20 19 18 18 17 18 19 18 16 15 15 15 14 13 12 12 12 12 11 10 9 8 8 8 8 7
11 10 9 10 11 8 9 8 6 6 5 6 8 8 8 9 9 10 9 8 8 6 5 7 9 8 5 3 2 1 2 2 2 4 5 6 6 5 5 6 6 5 6 5 5 8 8 6 7 9 11 13 14 16 17 17 19 23 25 25 23 22 21 20 19 19 18 17 16 16 16 16 15 14 14 13 13 13 11 10 10 9 9 9 9
12 11 10 10 10 11 12 12 9 8 6 5 6 7 7 7 6 6 7 7 7 7 8 7 7 8 7 5 2 2 3 3 2 2 4 4 4 4 4 5 6 7 8 9 8 9 10 9 8 7 7 10 12 14 16 17 16 18 22 25 25 26 25 24 23 21 20 19 19 18 17 17 17 16 16 16 15 14 14 13 12 11 11 11 10
13 12 12 12 11 10 11 11 12 13 13 11 9 8 8 7 6 4 4 5 7 8 9 9 8 7 7 5 3 3 2 3 2 0 2 3 3 3 4 5 6 8 9 10 11 10 10 10 9 8 7 7 9 11 13 16 17 18 19 20 21 22 24 26 27 26 24 22 21 21 21 20 20 19 19 18 17 17 17 16 15 15 14 13 13
12 11 12 12 13 13 11 11 13 13 14 15 14 13 13 11 10 9 9 7 6 6 8 8 8 7 6 4 2 3 4 3 3 2 1 1 3 4 6 6 7 8 9 10 10 10 10 10 9 8 8 7 8 8 9 11 15 18 20 20 19 19 20 22 25 27 27 25 24 24 24 22 22 22 21 21 20 20 20 20 19 18 18 17 16
11 10 10 11 14 16 14 13 12 10 11 13 13 12 12 12 12 12 13 13 10 9 10 9 8 7 6 5 3 2 2 2 2 2 2 1 2 4 6 7 8 10 10 9 9 8 8 9 9 8 8 9 8 8 8 8 10 13 15 16 16 17 18 19 21 23 26 26 25 25 26 25 24 24 24 24 23 23 23 23 22 21 21 20 19
12 11 11 10 12 15 15 15 13 10 10 10 10 10 11 11 11 11 13 15 14 14 15 14 13 11 9 8 7 5 4 4 4 4 1 1 2 3 6 9 9 11 12 11 10 9 9 9 9 8 9 10 11 10 10 9 9 10 11 11 12 14 15 16 17 19 21 24 26 26 27 27 26 25 26 25 25 25 25 26 24 23 23 22 22
13 13 12 11 11 13 15 15 13 13 13 12 12 11 11 11 10 9 10 12 13 13 13 13 13 13 12 11 11 10 8 7 7 8 6 3 2 3 8 12 10 11 14 13 10 9 10 10 9 9 8 9 10 10 10 10 10 10 9 9 10 11 12 13 15 15 17 20 22 22 23 25 26 27 27 26 25 25 26 27 27 25 24 24 22
13 12 12 12 12 13 14 14 13 14 14 14 13 12 12 11 10 9 9 9 9 9 9 9 10 11 11 10 10 9 9 8 7 7 7 6 5 3 7 10 8 11 16 13 10 10 10 11 11 12 12 11 10 10 10 10 10 10 9 8 8 9 11 12 12 12 12 15 17 17 17 18 21 24 27 27 25 24 25 27 27 26 25 24 23
13 13 13 12 12 13 14 13 13 13 12 11 11 12 11 11 11 11 11 11 9 8 9 8 8 9 9 8 7 6 7 7 6 6 6 6 8 6 6 8 6 9 14 14 12 11 11 12 13 13 9 7 8 10 11 11 12 11 9 8 7 8 10 10 10 9 10 12 14 15 15 15 16 19 23 26 26 25 26 26 26 25 25 24 24
15 13 13 13 11 10 11 11 12 12 11 10 10 11 11 11 12 11 11 11 10 10 10 9 9 8 7 6 5 4 5 5 4 5 4 5 7 6 6 7 6 7 10 12 12 12 12 15 17 18 16 13 10 9 8 8 10 10 8 8 8 9 9 8 8 9 10 11 13 14 15 15 15 15 17 20 23 26 28 28 27 26 25 25 26
16 14 13 13 11 9 9 9 11 12 11 10 10 10 10 10 10 9 9 10 10 10 10 10 10 9 7 5 5 5 4 4 2 3 3 4 5 6 6 5 4 6 7 8 10 9 11 14 15 17 20 19 17 14 11 7 2 3 5 7 8 8 9 10 11 12 12 12 12 12 13 14 14 15 15 16 18 21 24 27 28 28 27 27 27
17 15 14 13 11 9 8 8 9 11 11 11 11 9 8 8 8 9 9 8 8 9 9 10 10 9 7 5 5 6 4 3 3 3 3 3 4 5 7 7 4 3 4 6 7 5 9 14 13 13 18 19 18 15 13 10 6 6 8 8 8 8 10 11 12 12 12 13 13 12 12 12 12 13 14 15 16 17 19 22 25 26 28 29 30
18 16 15 14 11 8 8 8 7 9 10 10 9 7 6 7 8 8 8 7 5 6 7 7 7 8 7 4 3 5 5 5 6 7 6 5 5 5 6 7 5 3 2 4 4 4 9 16 13 12 17 18 16 15 14 12 9 9 10 9 9 10 10 10 11 11 11 12 13 13 13 12 12 13 14 15 15 17 18 19 21 23 25 28 30
20 18 17 15 12 9 9 9 8 9 10 9 8 7 6 6 7 6 6 6 5 4 4 4 4 5 6 5 2 3 5 6 7 8 8 7 5 4 3 4 5 4 2 2 4 4 11 18 16 16 21 21 18 17 16 14 14 13 13 13 12 12 12 11 11 11 11 12 14 14 14 14 15 16 17 18 18 18 18 18 19 20 23 25 27
22 19 18 15 13 11 10 10 9 10 11 10 8 8 8 7 6 7 6 5 5 4 4 3 1 2 4 5 3 1 3 3 3 4 6 6 6 5 3 2 2 3 3 2 2 4 11 18 20 21 23 23 22 20 18 16 14 14 14 14 15 15 15 14 13 12 10 11 13 15 16 17 18 19 19 19 20 20 20 19 19 19 20 22 24
23 20 18 15 13 12 11 10 10 10 11 11 10 9 10 8 8 9 7 6 7 7 5 4 4 1 2 4 3 1 2 1 0 1 2 3 4 5 4 2 1 2 4 4 4 8 14 17 19 21 22 22 21 19 18 17 15 15 16 16 17 18 17 16 16 15 14 13 13 15 17 18 19 20 21 20 20 20 20 20 20 19 19 20 22
24 21 18 16 13 12 12 12 11 11 12 12 11 11 11 10 10 10 9 8 9 9 7 5 5 4 2 2 3 3 3 1 1 1 3 5 6 7 7 6 4 3 5 6 6 9 15 17 18 20 19 19 19 18 19 21 21 20 20 19 18 19 19 18 17 17 17 16 16 17 18 19 20 21 22 22 22 22 22 21 20 19 20 20 21
25 21 19 16 14 13 13 13 12 11 12 13 13 13 12 11 11 12 11 11 12 11 10 8 8 7 5 5 5 6 5 3 3 2 3 3 3 5 5 4 4 4 5 8 10 10 14 17 17 17 17 18 19 20 21 23 23 22 21 21 21 20 20 20 19 18 17 17 17 18 19 20 22 22 22 22 22 23 23 23 22 21 21 21 22
25 21 19 18 16 15 14 14 14 14 14 14 15 14 14 14 14 14 14 13 13 13 13 12 11 10 9 7 6 6 6 5 5 3 3 4 4 5 5 2 3 6 6 8 10 10 12 14 15 16 18 19 21 21 21 22 22 21 22 22 21 21 20 20 20 20 19 19 19 19 20 21 22 22 23 22 23 23 24 24 24 23 23 23 23
25 22 21 20 19 17 16 14 13 15 16 17 17 17 17 17 17 16 16 16 14 14 15 15 13 12 13 11 7 7 8 8 6 4 4 6 6 6 6 5 4 6 7 9 10 11 11 14 16 17 18 20 20 21 21 22 21 21 21 22 21 20 20 20 21 21 20 20 20 21 21 22 22 23 23 23 23 23 24 25 26 25 25 25 25
25 22 19 18 17 15 14 12 11 11 13 17 19 20 19 19 20 19 19 19 17 15 15 16 14 13 15 13 9 9 10 10 7 6 6 7 7 6 6 7 7 8 9 10 11 12 13 16 19 20 19 19 20 20 20 21 22 22 22 22 21 20 20 20 21 22 22 22 22 21 21 21 22 23 24 24 24 24 23 24 25 25 25 26 26
21 19 17 16 15 13 10 8 8 10 12 15 18 22 23 22 21 21 21 21 19 17 17 17 14 13 14 13 10 10 11 10 9 8 8 9 8 8 9 8 9 10 10 10 11 12 14 16 18 20 21 20 20 20 20 20 22 23 24 23 22 21 21 21 21 21 21 21 21 22 22 22 22 23 23 23 23 24 25 25 25 24 24 24 24
14 14 14 13 14 14 10 9 12 16 19 19 19 22 25 25 24 23 24 23 21 19 19 18 16 14 14 13 12 10 10 10 10 10 10 10 9 9 9 9 10 11 11 11 12 12 13 15 17 19 20 21 20 21 21 21 20 20 21 22 21 20 21 22 23 23 22 21 22 22 22 22 22 22 22 22 22 23 24 26 27 26 24 23 23
12 13 13 14 16 18 17 16 17 21 25 26 25 25 26 27 28 27 26 25 23 21 21 19 17 16 15 13 12 11 11 11 12 12 12 11 10 9 9 11 12 12 12 12 12 12 13 16 18 19 21 22 22 22 23 22 21 20 22 23 22 22 22 22 21 21 21 20 20 20 20 20 20 20 19 19 19 20 23 26 28 29 29 26 23
12 13 14 15 17 19 20 20 22 25 27 28 28 28 27 28 31 30 29 28 25 23 21 19 18 17 14 13 13 12 12 13 13 13 13 12 11 11 12 13 12 11 11 11 11 12 13 16 18 19 20 21 22 22 22 22 20 20 24 26 25 25 26 24 21 17 16 18 19 20 19 21 23 22 20 19 17 17 19 22 23 26 30 30 28
9 11 12 13 15 17 19 22 23 25 26 27 27 27 28 30 32 32 30 29 27 25 22 20 19 17 14 14 13 13 13 13 14 14 14 13 13 14 14 12 11 10 9 10 10 11 13 14 15 16 17 19 21 21 22 23 23 23 25 25 25 26 26 25 22 19 16 18 24 26 24 24 26 27 25 22 19 17 18 18 17 18 21 25 27
10 12 14 16 16 16 18 20 21 23 26 28 28 28 28 29 31 32 32 30 28 26 24 23 21 19 17 16 14 13 14 15 16 15 14 14 15 15 12 10 9 8 7 8 10 11 12 13 14 15 16 19 22 23 23 23 24 25 26 24 22 22 22 19 19 21 22 24 30 33 30 27 28 30 30 28 25 23 22 21 19 17 16 18 19
12 12 15 17 17 18 19 19 21 23 26 28 28 27 27 28 30 32 32 30 28 27 25 24 23 21 19 17 16 15 16 16 17 17 16 16 16 15 13 10 9 8 8 9 10 11 12 14 16 18 18 20 23 23 22 22 24 27 28 26 23 21 20 17 17 22 27 30 32 33 32 30 29 30 32 32 30 29 26 23 22 20 17 16 17
8 9 9 10 11 11 12 14 17 20 23 26 25 24 24 26 27 27 28 29 30 29 26 24 23 21 19 17 16 16 15 14 16 17 16 16 16 15 14 12 11 10 9 10 10 11 13 16 19 21 22 22 23 24 23 23 25 26 26 26 26 25 24 23 23 26 32 33 31 29 31 33 30 29 31 32 33 32 28 26 25 23 21 18 17
3 4 4 5 7 6 6 7 8 10 15 18 20 21 22 21 19 21 24 26 27 25 23 23 22 19 17 17 17 15 12 12 14 16 16 16 15 14 14 13 12 11 10 11 12 12 14 16 19 23 24 24 25 26 24 23 25 26 26 27 28 28 29 30 31 33 35 32 28 24 26 29 29 27 27 28 29 29 29 28 26 25 24 21 19
4 5 5 6 7 8 10 9 6 8 11 13 15 17 18 16 15 19 23 24 23 21 19 17 17 16 15 16 15 13 10 9 11 12 14 14 15 15 14 13 12 12 12 13 14 15 17 19 20 23 24 24 23 23 22 21 23 25 27 28 30 31 32 33 33 34 33 32 28 23 22 26 28 27 26 24 24 24 24 25 25 24 23 22 21
5 6 7 8 8 9 11 11 9 9 10 11 11 9 8 10 13 17 19 19 18 17 15 13 13 14 13 12 11 10 10 10 11 11 12 13 15 15 14 13 13 14 15 17 17 18 19 19 19 21 21 20 19 18 18 19 21 23 25 27 29 29 29 28 27 28 28 28 26 23 23 27 26 25 26 25 24 23 22 23 24 23 22 20 19
5 7 8 9 8 8 9 9 9 7 7 7 7 5 7 11 13 14 13 13 11 11 11 10 9 9 8 10 11 11 11 12 13 14 15 16 16 15 14 14 15 16 17 18 17 16 16 17 17 18 18 18 18 18 19 20 21 23 24 25 25 25 24 20 19 21 24 25 24 23 24 26 25 25 26 25 23 21 21 21 19 15 13 13 13
7 8 10 10 9 8 8 9 8 6 5 6 7 8 9 11 12 11 10 10 9 8 8 6 4 6 8 11 12 12 13 13 14 15 16 16 15 14 13 14 14 15 16 15 15 16 17 18 20 21 22 22 23 25 26 26 27 28 28 28 27 25 22 18 17 20 22 23 21 20 22 24 24 24 24 22 19 17 15 13 10 6 5 5 6
8 9 10 12 10 9 10 10 8 6 6 8 9 10 10 11 12 12 11 9 8 7 6 4 3 5 9 12 13 13 13 13 14 14 14 13 12 11 11 12 14 15 16 17 18 20 21 23 24 25 26 27 28 29 29 30 30 29 29 29 28 26 24 22 21 18 15 14 14 15 19 21 19 17 16 14 11 9 9 8 7 6 6 8 8
Wind_Direction
194 194 207 200 188 201 210 214 216 213 213 214 213 206 198 201 197 182 172 175 182 166 146 152 169 173 130 143 161 154 146 156 175 183 169 157 138 136 141 129 119 125 128 124 134 146 158 169 180 189 169 174 175 171 173 170 160 160 171 186 253 290 359 61 88 85 84 85 84 82 81 82 82 84 86 89 95 99 99 95 98 101 103 102 97
188 181 186 189 196 210 211 208 217 220 213 210 204 190 185 192 185 180 180 175 178 167 146 146 162 184 174 151 155 152 152 150 173 187 181 177 163 146 142 135 113 109 121 125 134 142 156 171 176 170 150 173 174 173 178 179 170 163 175 200 222 251 284 308 100 94 90 88 88 84 80 79 80 83 83 85 89 94 96 95 98 100 102 103 101
189 178 172 169 177 200 208 200 206 213 205 188 179 171 165 172 173 173 176 176 176 167 154 147 151 163 167 187 228 239 190 192 198 200 197 191 182 168 154 151 139 119 121 125 140 150 158 165 170 165 145 179 171 167 176 184 182 170 182 208 218 234 255 269 237 119 101 92 91 90 82 78 75 78 81 83 86 90 96 96 100 101 99 101 101
185 175 170 164 164 179 187 182 189 199 193 176 170 166 164 171 177 169 154 161 165 153 146 152 162 169 176 218 255 249 180 190 188 180 203 198 189 190 185 176 170 159 146 135 140 154 162 164 172 174 160 187 182 175 178 181 188 179 183 212 223 223 228 237 237 209 133 108 98 95 90 83 72 67 71 78 83 89 95 98 102 105 106 106 105
170 166 163 163 170 181 178 167 176 185 176 171 167 162 170 175 175 169 149 150 152 143 142 146 142 155 189 251 269 280 311 188 192 113 179 200 206 212 210 209 196 181 172 165 162 166 170 169 177 184 172 183 194 204 202 175 189 190 185 208 221 213 213 218 229 240 235 187 131 108 101 97 89 72 60 63 72 84 95 99 101 107 112 113 113
168 169 161 161 177 190 185 166 175 179 172 173 168 159 172 174 169 171 161 157 153 147 150 142 134 145 156 251 275 278 285 254 236 153 121 179 215 225 218 223 218 208 201 192 192 188 185 180 180 191 188 183 190 207 229 207 195 199 193 199 207 208 213 213 218 234 245 226 188 150 126 117 111 100 73 52 54 82 100 99 101 108 116 120 121
160 170 168 168 177 184 177 168 178 180 179 183 177 169 176 173 168 170 164 163 160 152 155 151 149 153 135 113 277 267 263 261 253 251 248 159 188 222 223 228 225 219 217 213 214 206 200 196 188 193 198 196 196 200 218 227 209 198 195 198 203 210 213 213 215 220 232 230 206 197 186 161 142 135 131 115 37 340 118 108 111 111 117 125 127
139 152 162 163 169 178 169 166 181 184 190 195 186 183 186 179 174 176 167 163 165 160 165 173 170 167 158 145 300 268 255 254 252 250 248 247 235 211 220 229 232 231 231 227 226 219 208 207 204 202 202 203 206 204 211 226 223 202 191 202 216 218 210 213 215 211 218 226 215 215 211 190 174 167 159 153 176 243 253 221 174 144 141 138 134
123 131 146 151 159 168 158 158 175 182 195 199 189 189 192 188 181 182 182 169 168 167 172 186 182 179 196 235 274 268 264 264 258 250 241 242 243 237 225 222 234 242 245 240 230 223 218 215 216 213 210 210 211 211 212 222 226 212 198 207 221 227 215 209 212 210 210 215 217 220 212 200 199 191 171 158 172 212 240 240 232 215 191 173 153
124 134 140 145 154 160 151 156 171 179 192 197 189 189 191 195 186 176 180 174 167 163 166 177 175 176 198 222 247 263 274 277 269 260 255 250 241 237 235 227 234 266 262 248 234 221 221 224 225 220 216 217 218 218 217 222 226 217 214 222 225 228 226 211 208 209 208 209 214 223 227 226 227 211 182 162 167 190 224 240 246 242 221 202 192
127 148 155 149 157 162 158 164 174 176 185 192 190 190 189 194 189 173 167 169 168 166 172 182 181 180 195 212 236 269 286 287 280 269 269 274 263 247 242 235 240 265 343 252 236 227 227 231 230 227 223 221 222 223 220 222 226 219 219 229 227 224 227 220 212 210 210 212 214 221 234 239 236 220 197 176 172 185 211 229 243 247 238 224 214
116 128 133 152 165 164 160 164 173 176 180 187 189 191 190 190 189 178 168 165 167 170 182 191 186 179 196 223 250 277 290 292 286 269 260 268 268 260 259 254 250 257 295 255 231 230 238 244 237 231 230 227 226 227 225 224 226 220 216 222 226 225 228 226 224 228 228 226 221 224 235 240 235 225 220 219 212 205 213 226 237 244 247 240 230
116 116 114 133 154 162 167 164 167 177 183 186 185 184 185 183 180 177 175 173 171 169 181 185 174 161 196 263 257 273 287 293 294 279 259 257 259 256 257 258 266 267 255 254 237 230 244 247 240 234 233 232 231 231 231 228 226 224 219 220 223 226 230 231 232 237 241 243 236 233 237 240 238 230 228 235 238 236 235 240 243 245 249 246 240
105 111 117 127 141 148 162 167 168 178 182 183 183 180 182 184 179 175 172 172 180 188 189 185 171 165 158 116 275 274 283 286 294 293 274 261 259 256 254 249 250 312 327 277 272 278 273 255 243 239 237 236 236 236 237 235 230 227 225 225 224 224 228 233 241 245 243 245 246 243 243 243 240 236 233 236 242 244 243 246 251 252 254 251 245
105 105 105 105 129 142 140 146 161 177 184 187 188 182 182 186 186 188 186 187 211 226 207 195 174 161 154 116 289 279 298 287 291 301 281 261 261 258 250 239 234 248 312 336 318 310 302 277 259 250 244 240 239 241 243 243 240 233 229 229 229 228 227 229 238 246 247 245 246 246 245 243 242 242 241 240 243 246 246 247 250 255 258 258 253
113 112 101 88 98 132 140 136 143 161 181 192 191 186 186 186 185 193 197 195 204 216 205 195 180 160 142 110 144 131 311 272 275 300 280 258 262 265 258 257 250 247 261 313 341 335 320 287 264 254 248 243 242 246 248 250 250 243 238 234 233 233 232 228 228 236 244 245 245 246 245 244 243 244 246 245 245 247 248 249 250 253 256 259 257
107 118 107 89 90 105 121 124 136 153 171 182 176 171 175 175 174 184 192 195 198 188 174 191 201 197 173 136 120 181 223 214 240 283 272 259 262 263 262 263 267 272 272 285 314 322 318 304 281 260 248 244 245 250 250 251 251 245 241 238 237 236 236 234 227 228 235 237 237 240 242 243 243 244 248 248 248 248 249 249 250 252 254 257 257
101 108 101 93 92 99 108 107 106 117 128 147 160 159 155 158 164 172 183 195 197 177 171 185 201 204 196 185 173 176 188 170 156 277 282 275 266 266 280 276 273 277 276 274 277 291 302 299 292 280 261 250 246 247 249 249 248 243 241 240 240 240 241 241 237 232 231 230 231 233 237 242 245 246 248 250 250 249 249 250 252 253 254 255 256
102 100 97 95 95 104 110 106 102 103 105 112 127 134 127 133 147 132 127 167 191 184 178 182 180 187 202 212 216 208 204 186 171 264 307 292 291 303 311 302 292 288 285 282 272 269 282 288 287 284 275 257 241 241 245 246 246 244 242 243 243 245 246 245 243 240 236 233 233 235 238 241 245 248 249 251 253 252 252 253 254 256 255 255 254
104 99 98 93 87 95 106 106 106 104 100 103 111 115 109 110 120 114 101 115 155 162 158 169 169 171 190 197 213 233 228 213 213 210 163 305 317 322 324 317 309 307 305 302 292 278 273 278 284 282 274 264 250 246 245 242 242 243 245 246 248 249 248 245 244 243 241 239 237 239 240 239 243 248 250 251 253 254 255 254 254 256 255 255 254
108 105 104 97 85 89 97 99 103 107 104 105 108 110 109 108 111 108 101 105 116 119 115 122 128 130 150 159 152 160 157 164 229 255 223 243 296 300 324 331 323 328 333 324 314 304 286 274 272 279 284 277 263 253 252 250 244 244 246 248 251 253 250 247 245 244 242 242 241 242 242 239 240 246 250 252 253 253 255 255 254 254 254 253 253
113 111 109 106 95 89 90 90 92 96 100 106 110 108 104 104 108 109 105 106 112 114 109 106 106 106 116 127 123 109 99 81 45 23 348 275 293 309 340 343 326 330 342 340 329 322 308 282 260 272 297 293 282 269 259 263 265 263 261 258 259 259 254 250 248 246 244 244 244 247 248 246 245 246 250 253 253 253 252 253 253 252 253 252 251
120 117 112 112 108 99 93 93 91 88 88 95 100 102 103 104 109 117 116 112 114 116 114 108 105 103 104 106 102 97 90 71 52 44 44 36 360 332 343 346 339 336 340 337 329 322 312 296 270 267 284 293 297 286 270 271 276 276 273 268 268 267 261 256 253 252 250 247 246 249 251 250 249 247 248 251 253 253 251 252 254 252 250 247 243
127 124 120 118 116 113 109 106 103 99 96 98 101 104 108 111 113 117 120 122 125 126 122 117 114 107 102 102 101 97 89 78 66 54 50 47 48 28 353 355 348 337 342 345 338 328 323 319 312 304 291 284 291 293 284 279 276 278 277 273 272 271 268 263 260 259 259 256 251 249 252 252 250 248 246 248 248 249 249 248 249 249 245 240 236
137 132 128 124 122 123 124 120 116 114 111 112 116 117 116 116 115 110 109 116 122 126 123 122 125 118 108 106 105 102 95 85 73 66 63 56 52 40 3 5 353 332 343 352 353 353 3 13 15 9 349 318 307 304 298 284 274 279 280 277 279 278 278 272 266 266 267 266 261 257 259 259 257 252 248 247 244 244 248 246 244 246 245 241 238
148 142 133 130 130 128 131 133 130 126 120 118 122 121 117 114 111 105 102 108 111 112 114 118 126 127 121 111 102 107 110 102 82 68 62 50 48 37 6 4 352 339 344 349 1 15 27 34 40 40 36 32 26 6 339 304 276 278 284 289 296 294 294 292 284 281 276 272 268 265 266 265 264 261 256 253 248 246 249 249 247 248 247 244 242
156 149 139 139 143 137 135 137 136 135 131 128 129 126 120 115 113 110 103 101 102 103 106 112 123 127 119 105 96 103 121 124 99 59 59 57 50 37 22 19 357 342 339 342 359 18 25 27 30 30 28 24 23 23 19 14 353 325 330 322 315 308 307 306 300 295 287 281 278 275 275 273 269 267 266 264 259 253 250 249 250 250 248 246 245
160 151 146 151 155 149 144 139 138 141 139 136 134 132 134 130 125 119 110 104 100 101 103 107 120 124 113 97 80 74 81 92 54 30 60 78 66 44 20 22 25 348 332 339 349 353 8 13 12 10 15 14 11 11 10 17 34 23 359 344 332 321 314 311 307 305 298 288 282 281 283 283 281 277 273 271 268 264 259 254 254 253 251 250 249
162 155 154 161 165 162 158 152 148 144 142 147 147 143 148 144 135 124 119 124 115 102 102 101 110 117 111 101 68 45 38 56 52 45 63 78 75 59 19 14 25 20 350 336 331 306 340 358 1 351 352 355 356 355 354 352 345 335 329 322 320 318 315 315 311 311 310 301 291 289 291 291 290 288 284 279 275 273 271 266 262 258 256 255 254
165 160 161 169 174 174 173 168 165 155 149 159 165 162 166 156 146 146 145 151 145 122 121 114 106 113 118 121 104 16 24 51 55 47 55 63 60 51 24 10 16 24 28 321 314 309 331 343 346 339 336 336 336 336 336 335 329 324 319 309 302 299 299 304 306 305 308 307 300 293 292 293 293 291 289 287 283 280 277 274 271 266 262 259 258
168 165 166 172 178 180 182 179 175 168 164 173 181 176 183 182 170 176 182 179 171 158 170 191 170 120 129 138 142 348 4 34 36 29 37 42 37 30 36 42 11 352 340 321 289 301 326 333 330 328 330 330 328 325 324 328 331 328 322 313 304 297 291 290 293 296 298 301 299 292 290 293 293 292 290 288 286 284 280 276 275 273 269 264 261
172 170 170 173 177 182 189 191 189 182 177 183 191 187 190 197 192 193 199 196 195 196 202 222 232 224 130 147 164 316 339 359 21 10 1 352 344 347 357 11 17 308 302 297 263 286 310 320 320 324 331 334 334 333 331 330 329 322 317 314 310 306 302 295 290 290 291 293 294 292 292 295 295 293 289 284 281 282 282 279 276 274 272 268 265
176 174 173 176 179 183 191 198 202 197 191 192 198 199 199 201 199 205 212 205 203 212 220 226 227 233 260 226 232 286 307 304 186 224 287 298 291 302 308 299 296 295 287 285 276 288 304 310 315 322 331 337 337 337 334 327 322 320 318 318 318 318 317 312 304 297 295 294 292 291 291 291 292 294 292 286 280 279 280 281 279 277 276 273 270
178 177 176 178 184 187 193 202 207 207 206 205 206 206 206 206 206 211 215 209 209 219 223 220 221 230 242 242 247 263 272 292 303 271 289 307 295 313 323 299 293 312 309 298 292 288 296 307 317 323 327 331 329 327 326 322 321 323 322 323 323 321 319 317 315 312 308 304 301 297 294 290 288 289 290 288 284 279 276 276 277 278 278 277 274
173 175 178 182 186 189 194 202 208 212 213 212 214 215 212 213 216 217 216 213 212 219 222 217 219 230 236 235 241 244 245 271 295 287 304 323 313 316 328 330 319 326 330 319 312 306 302 308 319 323 324 325 322 320 320 318 319 321 318 317 316 315 316 315 313 312 312 309 305 299 295 292 289 289 289 289 287 283 277 272 271 274 276 277 277
171 171 176 180 183 186 192 199 209 218 221 220 219 219 218 220 222 221 219 218 218 221 224 220 219 228 233 231 229 230 238 258 274 274 286 296 293 290 294 299 303 309 316 320 323 326 321 318 319 319 321 321 318 317 319 317 315 315 314 313 311 309 310 310 310 310 310 309 305 301 297 293 292 290 289 288 286 283 277 270 268 270 273 275 276
170 171 173 175 177 179 184 189 197 215 229 231 227 225 224 224 225 224 222 223 224 224 225 225 224 230 232 226 217 220 234 247 251 252 263 269 269 270 279 290 292 292 299 307 315 321 324 324 322 320 319 319 317 317 318 319 316 314 312 311 310 309 309 310 310 309 310 311 310 310 309 304 302 298 293 291 287 283 278 271 267 269 273 276 277
169 174 177 180 183 180 177 191 216 237 244 243 240 236 230 226 225 226 226 227 227 226 226 227 229 232 225 212 206 215 227 233 232 238 250 254 257 267 277 286 289 289 294 302 309 313 317 320 320 320 320 321 322 323 325 327 324 318 314 311 307 308 311 314 315 313 315 316 315 314 314 312 309 304 299 295 291 286 280 274 269 268 271 274 277
174 177 182 193 200 203 217 249 259 260 258 256 255 251 241 232 227 226 227 227 227 226 225 225 226 226 217 205 206 215 220 224 229 236 245 251 258 264 270 278 286 292 296 301 307 310 315 318 317 318 318 317 319 322 324 329 330 330 332 331 323 318 318 320 320 320 320 319 317 314 313 314 314 311 307 303 297 291 282 275 270 267 268 272 276
205 202 209 226 228 227 241 249 244 250 257 257 257 257 252 241 231 228 226 225 225 223 222 223 223 222 220 221 223 223 224 231 237 242 247 250 251 255 270 283 289 292 295 301 307 311 315 317 315 316 318 314 315 318 321 328 336 338 338 340 336 331 330 323 317 320 323 320 319 318 316 321 324 324 325 322 312 301 289 279 273 267 264 267 272
225 224 231 244 243 239 244 244 241 248 255 255 254 257 257 249 237 229 225 223 222 220 218 218 219 219 221 226 226 226 232 239 244 248 250 248 251 265 283 290 289 291 294 298 306 312 316 317 315 317 319 317 318 323 325 329 336 334 330 332 334 332 332 325 313 313 322 322 322 318 312 318 325 324 326 333 334 326 310 297 286 275 266 265 267
240 242 241 243 244 243 244 246 249 253 254 256 258 259 259 253 241 229 224 223 220 216 214 212 211 212 212 211 215 224 237 244 248 250 251 254 264 277 285 287 286 291 295 300 309 317 318 316 316 317 317 313 314 319 320 320 324 326 328 333 334 332 333 331 318 309 313 320 326 323 311 311 323 323 318 321 331 337 333 325 313 298 284 276 273
246 247 243 241 242 243 243 245 251 256 258 259 259 258 255 251 242 232 224 221 217 213 212 211 207 204 206 209 216 228 240 246 250 251 255 265 276 282 286 289 287 287 292 299 309 315 312 309 308 309 307 304 307 312 314 315 318 321 324 329 331 331 335 335 322 310 309 319 329 327 313 305 314 320 316 314 316 320 326 329 325 314 302 294 288
235 237 239 241 245 248 248 250 255 261 263 261 260 259 256 251 244 234 224 218 213 211 211 210 206 204 210 217 224 232 239 243 246 250 258 269 277 281 285 287 281 276 281 290 297 303 303 301 299 297 296 296 300 305 307 310 314 315 317 318 322 327 329 324 315 308 308 316 325 325 314 304 308 316 316 313 313 315 319 323 325 321 311 300 294
222 227 231 237 241 242 245 251 258 265 266 265 265 266 261 253 242 230 222 217 213 211 210 208 206 206 212 217 219 225 232 238 245 252 259 264 270 275 278 279 275 272 277 284 291 295 296 296 293 293 296 295 294 296 299 304 307 308 309 309 311 316 317 313 309 307 309 315 320 320 312 306 310 316 315 311 310 312 314 317 320 321 316 308 300
229 236 248 253 246 236 245 261 266 270 269 267 268 267 262 254 239 223 217 214 209 206 203 200 198 202 206 206 209 216 226 239 250 253 255 258 263 269 270 268 265 265 272 282 290 292 293 295 294 295 299 299 295 296 299 301 300 299 299 301 304 308 308 305 304 304 305 309 313 313 305 303 309 313 311 311 310 309 311 313 315 315 311 306 304
262 264 270 280 276 262 261 270 278 282 281 278 276 273 268 259 236 214 208 205 199 193 189 188 191 196 197 198 206 215 224 241 253 251 250 255 259 259 256 253 255 262 272 282 288 290 290 293 295 297 300 301 299 299 301 299 296 294 293 293 297 300 301 300 299 300 300 301 305 306 298 299 305 306 305 309 310 307 307 308 311 313 308 301 297
260 260 260 274 281 261 249 250 258 272 284 288 284 276 256 228 203 191 188 186 183 182 185 191 198 198 199 208 225 236 239 247 259 261 260 261 259 255 253 254 261 268 275 281 285 288 289 289 291 295 298 301 300 298 297 295 293 293 293 293 295 297 298 297 295 296 298 299 302 303 296 296 301 301 303 309 311 309 309 309 311 311 302 291 284
262 255 251 255 256 242 235 238 238 243 262 275 270 240 201 185 175 170 172 168 161 166 177 188 203 214 230 242 249 254 251 253 261 264 264 263 259 257 260 264 270 274 278 282 283 282 281 278 279 284 287 291 292 291 292 291 291 295 299 300 301 302 300 295 291 293 296 297 302 303 295 292 294 297 302 310 313 312 311 312 317 315 298 283 275
272 258 242 233 226 225 235 237 225 213 217 226 227 217 204 193 182 174 172 165 154 157 167 178 212 238 240 238 240 248 254 258 260 255 251 249 247 251 259 267 273 276 279 282 280 276 274 273 274 276 277 280 282 283 284 285 286 290 294 296 298 300 296 289 288 294 294 293 300 303 292 287 290 294 299 309 315 316 317 325 337 337 316 307 299
283 269 235 219 213 215 228 230 213 196 198 206 215 218 213 211 207 200 191 177 163 157 159 158 176 212 228 235 243 254 260 257 252 245 241 241 245 254 266 278 286 288 288 290 290 289 289 288 288 287 286 286 287 287 287 287 287 289 289 290 292 290 286 283 286 293 293 291 299 303 296 294 299 302 309 319 321 317 325 347 11 4 342 338 332